Location: St. Croix
(17.7278°N, 64.7644°W)
Time: 04:06:38
(UTC-04:00)

ISS - Visible Passes

Search period start: 14 December 2017 00:00
Search period end: 24 December 2017 00:00
Orbit: 402 x 406 km, 51.6° (Epoch: 14 December)

Date Brightness Start Highest point End Pass type
(mag) Time Alt. Az. Time Alt. Az. Time Alt. Az.
16 Dec -1.9 18:23:58 10° NNE 18:25:35 13° NE 18:26:03 13° NE visible
17 Dec -3.6 19:06:32 10° NW 19:09:47 68° SW 19:11:27 26° SSE visible
18 Dec -3.4 18:14:25 10° NNW 18:17:31 40° NE 18:20:37 10° ESE visible
19 Dec -0.7 18:59:11 10° W 19:01:29 18° SW 19:03:46 10° S visible
